W1QED Fitchburg MA US current weather conditions

sailwx.info

Wind from 321 at 1 knots gusting 3

Air temperature 32.2° C
Dewpoint 16.5° C

Last reported at 2020-Aug-12 18:01 UTC.
Time now 2020-Aug-12 18:27 UTC

Location: N 42°36' W 071°47'.
View on Google Maps.

See reports from other nearby stations

  
Tides and Currents Weather Stations Pressure Air Temp Water Temp Dewpoint Dewpoint Depression Visibility Wind Speed Wind Dir Waves Ship Positions
date/time (UTC)wind fromknots sea level pressurealtimeterstation pressurevisibilityair tempwater tempwave heightnotes
2020-Aug-12 18:06 280 32.2
2020-Aug-12 18:01 321 1 gusting 3 32.2
2020-Aug-12 17:55 263 0 gusting 5 32.2
2020-Aug-12 17:51 071 0 gusting 3 32.2
2020-Aug-12 17:46 273 31.7
2020-Aug-12 17:40 285 0 gusting 6 31.7
2020-Aug-12 17:35 291 1 gusting 6 31.1
2020-Aug-12 17:31 343 1 gusting 6 31.1
2020-Aug-12 17:25 271 0 gusting 4 30.6
2020-Aug-12 17:20 332 30.6
2020-Aug-12 17:16 298 1 gusting 6 31.1
2020-Aug-12 17:10 056 1 gusting 4 31.7
2020-Aug-12 17:05 013 0 gusting 4 31.1
2020-Aug-12 17:02 071 30.6
2020-Aug-12 16:55 331 0 gusting 3 31.1
2020-Aug-12 16:50 234 0 gusting 3 31.7
2020-Aug-12 16:45 236 0 gusting 2 31.7
2020-Aug-12 16:40 244 0 gusting 2 31.1
2020-Aug-12 16:35 287 0 gusting 4 31.1
2020-Aug-12 16:31 275 1 gusting 4 31.1
2020-Aug-12 16:25 275 0 gusting 2 31.1
2020-Aug-12 16:20 030 0 gusting 4 31.1
2020-Aug-12 16:16 323 1 gusting 5 31.1
2020-Aug-12 16:10 231 1 gusting 5 31.1
2020-Aug-12 16:05 251 0 gusting 3 31.1
2020-Aug-12 16:01 086 0 gusting 3 30.6
2020-Aug-12 15:55 281 0 gusting 3 30.6
2020-Aug-12 15:50 254 0 gusting 3 30.6
2020-Aug-12 15:40 283 0 gusting 4 30.0
2020-Aug-12 15:35 231 1 gusting 4 30.0
2020-Aug-12 15:30 326 0 gusting 2 30.0
2020-Aug-12 15:25 259 30.0
2020-Aug-12 15:20 278 1 gusting 3 30.0
2020-Aug-12 15:15 297 0 gusting 3 30.0
2020-Aug-12 15:10 259 0 gusting 4 30.0
2020-Aug-12 15:05 245 0 gusting 4 30.0
2020-Aug-12 15:00 255 0 gusting 2 30.0
2020-Aug-12 14:55 275 0 gusting 2 29.4
2020-Aug-12 14:50 158 0 gusting 3 29.4
2020-Aug-12 14:45 297 0 gusting 3 28.9
2020-Aug-12 14:40 267 28.3
2020-Aug-12 14:35 321 0 gusting 2 28.3
2020-Aug-12 14:25 266 28.9
2020-Aug-12 14:20 289 1 gusting 3 28.9
2020-Aug-12 14:10 152 28.9
2020-Aug-12 14:05 098 28.3
2020-Aug-12 14:00 049 0 gusting 4 28.9
2020-Aug-12 13:55 354 0 gusting 4 28.9
2020-Aug-12 13:50 276 0 gusting 4 28.3
2020-Aug-12 13:45 313 1 gusting 3 28.3
2020-Aug-12 13:40 342 0 gusting 2 28.3
2020-Aug-12 13:31 318 0 gusting 4 28.3
2020-Aug-12 13:25 278 27.8
2020-Aug-12 13:20 293 0 gusting 4 27.8
2020-Aug-12 13:17 245 0 gusting 4 27.8
2020-Aug-12 13:10 231 0 gusting 2 27.2
2020-Aug-12 13:05 188 0 gusting 4 27.2
2020-Aug-12 13:01 355 1 gusting 4 27.2
2020-Aug-12 12:56 340 27.2
2020-Aug-12 12:50 056 26.7
2020-Aug-12 12:45 242 26.1
2020-Aug-12 12:40 260 0 gusting 1 26.1
2020-Aug-12 12:35 257 26.1
2020-Aug-12 12:31 256 0 gusting 1 26.1
2020-Aug-12 12:25 248 25.6
2020-Aug-12 12:20 193 25.0
2020-Aug-12 12:16 252 24.4
2020-Aug-12 12:10 302 24.4
2020-Aug-12 12:05 261 23.9
2020-Aug-12 12:01 261 23.9
2020-Aug-12 11:55 261 23.3
2020-Aug-12 11:50 261 23.3
2020-Aug-12 11:46 261 23.3
2020-Aug-12 11:40 250 23.3
2020-Aug-12 11:35 250 22.8
2020-Aug-12 11:30 233 22.8
2020-Aug-12 11:20 257 22.8
2020-Aug-12 11:15 240 22.8
2020-Aug-12 11:10 262 22.8
2020-Aug-12 11:05 149 22.8
2020-Aug-12 11:00 148 22.8
2020-Aug-12 10:55 262 22.8
2020-Aug-12 10:50 262 22.8
2020-Aug-12 10:45 262 22.8
2020-Aug-12 10:40 200 22.8
2020-Aug-12 10:35 200 22.8
2020-Aug-12 10:25 240 22.2
2020-Aug-12 10:20 240 22.2
2020-Aug-12 10:15 240 22.2
2020-Aug-12 10:10 240 22.8
2020-Aug-12 10:05 240 22.8
2020-Aug-12 09:55 221 22.8
2020-Aug-12 09:50 221 22.8
2020-Aug-12 09:45 216 22.8
2020-Aug-12 09:40 222 22.8
2020-Aug-12 09:35 221 22.8
2020-Aug-12 09:30 153 22.8
2020-Aug-12 09:25 205 22.8
2020-Aug-12 09:17 172 0 gusting 3 22.8
2020-Aug-12 09:11 252 22.8
2020-Aug-12 09:06 252 23.3
2020-Aug-12 09:01 219 23.3
2020-Aug-12 08:55 214 0 gusting 2 23.3
2020-Aug-12 08:50 151 0 gusting 3 23.3
2020-Aug-12 08:47 207 23.3
2020-Aug-12 08:40 195 0 gusting 3 23.3
2020-Aug-12 08:35 226 23.3
2020-Aug-12 08:31 238 23.3
2020-Aug-12 08:26 196 23.9
2020-Aug-12 08:20 262 2 gusting 8 23.9
2020-Aug-12 08:17 249 0 gusting 3 23.9
2020-Aug-12 08:10 243 0 gusting 6 23.9
2020-Aug-12 08:05 245 1 gusting 6 23.9
2020-Aug-12 08:01 198 1 gusting 9 23.9
2020-Aug-12 07:55 242 2 gusting 9 23.9
2020-Aug-12 07:50 188 2 gusting 6 23.9
2020-Aug-12 07:47 241 0 gusting 5 23.9
2020-Aug-12 07:40 136 1 gusting 5 23.9
2020-Aug-12 07:35 212 2 gusting 5 23.9
2020-Aug-12 07:32 200 2 gusting 5 23.9
2020-Aug-12 07:25 213 1 gusting 4 23.9
2020-Aug-12 07:20 229 1 gusting 3 23.9
2020-Aug-12 07:16 217 1 gusting 4 23.9
2020-Aug-12 07:10 212 0 gusting 5 23.9
2020-Aug-12 07:05 248 1 gusting 4 23.9
2020-Aug-12 07:01 258 0 gusting 4 23.9
2020-Aug-12 06:55 201 0 gusting 4 23.9
2020-Aug-12 06:50 168 1 gusting 3 23.9
2020-Aug-12 06:45 244 1 gusting 3 23.9
2020-Aug-12 06:40 226 0 gusting 9 23.9
2020-Aug-12 06:35 191 3 gusting 9 23.9
2020-Aug-12 06:30 195 1 gusting 6 23.9
2020-Aug-12 06:25 227 1 gusting 5 23.9
2020-Aug-12 06:20 193 1 gusting 4 23.9
2020-Aug-12 06:15 203 1 gusting 6 23.9
2020-Aug-12 06:05 214 2 gusting 7 23.9
2020-Aug-12 06:01 195 2 gusting 7 23.9
2020-Aug-12 05:56 201 2 gusting 6 23.9
2020-Aug-12 05:50 198 3 gusting 6 23.9
2020-Aug-12 05:46 224 2 gusting 6 23.9
2020-Aug-12 05:40 153 3 gusting 6 23.9
2020-Aug-12 05:35 210 2 gusting 5 23.9
2020-Aug-12 05:30 221 1 gusting 6 23.9
2020-Aug-12 05:25 197 1 gusting 6 23.9
2020-Aug-12 05:20 200 0 gusting 6 23.9
2020-Aug-12 05:17 198 2 gusting 6 23.9
2020-Aug-12 05:10 216 1 gusting 6 23.9
2020-Aug-12 05:05 283 2 gusting 7 23.9
2020-Aug-12 05:00 179 2 gusting 7 23.9
2020-Aug-12 04:55 231 2 gusting 6 23.9
2020-Aug-12 04:50 199 1 gusting 5 23.9
2020-Aug-12 04:46 214 0 gusting 5 23.9
2020-Aug-12 04:35 220 1 gusting 6 23.9
2020-Aug-12 04:30 201 1 gusting 5 23.9
2020-Aug-12 04:25 166 1 gusting 5 23.9
2020-Aug-12 04:20 237 1 gusting 5 23.9
2020-Aug-12 04:15 217 0 gusting 4 23.9
2020-Aug-12 04:10 250 0 gusting 2 23.9
2020-Aug-12 04:05 223 0 gusting 2 23.9
2020-Aug-12 04:00 185 23.9
2020-Aug-12 03:55 216 0 gusting 4 23.9
2020-Aug-12 03:45 145 0 gusting 6 23.9
2020-Aug-12 03:40 226 1 gusting 6 23.9
2020-Aug-12 03:30 245 2 gusting 6 24.4
2020-Aug-12 03:25 232 1 gusting 6 24.4
2020-Aug-12 03:20 206 2 gusting 6 24.4
2020-Aug-12 03:10 190 0 gusting 4 24.4
2020-Aug-12 03:05 249 0 gusting 4 24.4
2020-Aug-12 02:55 171 1 gusting 4 24.4
2020-Aug-12 02:50 236 1 gusting 4 24.4
2020-Aug-12 02:45 230 1 gusting 4 24.4
2020-Aug-12 02:40 254 1 gusting 3 24.4
2020-Aug-12 02:35 199 0 gusting 4 25.0
2020-Aug-12 02:25 180 0 gusting 3 25.0
2020-Aug-12 02:20 188 1 gusting 5 25.0
2020-Aug-12 02:15 103 2 gusting 6 25.0
2020-Aug-12 02:10 212 3 gusting 6 25.0
2020-Aug-12 02:05 239 1 gusting 6 25.0
2020-Aug-12 01:56 223 1 gusting 4 25.0
2020-Aug-12 01:50 181 1 gusting 6 25.6
2020-Aug-12 01:46 226 1 gusting 6 25.6
2020-Aug-12 01:40 229 2 gusting 7 25.6
2020-Aug-12 01:35 179 2 gusting 7 25.6
2020-Aug-12 01:31 163 2 gusting 6 26.1
2020-Aug-12 01:25 224 1 gusting 7 26.1
2020-Aug-12 01:21 195 1 gusting 6 26.1
2020-Aug-12 01:16 226 2 gusting 6 26.1
2020-Aug-12 01:10 212 0 gusting 5 26.1
2020-Aug-12 01:05 190 2 gusting 5 26.1
2020-Aug-12 01:01 210 1 gusting 6 26.1
2020-Aug-12 00:55 155 0 gusting 8 26.7
2020-Aug-12 00:50 175 3 gusting 8 26.7
2020-Aug-12 00:46 214 1 gusting 5 26.7
2020-Aug-12 00:40 195 2 gusting 5 26.7
2020-Aug-12 00:35 221 0 gusting 4 26.7
2020-Aug-12 00:31 224 2 gusting 6 27.2
2020-Aug-12 00:25 208 3 gusting 6 27.2
2020-Aug-12 00:20 153 1 gusting 6 27.2
2020-Aug-12 00:16 203 2 gusting 6 27.2
2020-Aug-12 00:10 194 0 gusting 6 27.8
2020-Aug-12 00:01 170 2 gusting 8 27.8
2020-Aug-11 23:55 218 3 gusting 8 27.8
2020-Aug-11 23:50 200 2 gusting 9 28.3
2020-Aug-11 23:45 190 4 gusting 6 28.3
2020-Aug-11 23:40 239 0 gusting 6 28.3
2020-Aug-11 23:35 172 1 gusting 7 28.9
2020-Aug-11 23:30 142 2 gusting 8 28.9
2020-Aug-11 23:25 226 3 gusting 8 28.9
2020-Aug-11 23:20 210 2 gusting 6 28.9
2020-Aug-11 23:15 207 3 gusting 6 29.4
2020-Aug-11 23:10 177 2 gusting 7 29.4
2020-Aug-11 23:05 229 3 gusting 7 29.4
2020-Aug-11 23:00 228 2 gusting 9 29.4
2020-Aug-11 22:55 217 4 gusting 11 30.0
2020-Aug-11 22:50 199 4 gusting 11 30.0
2020-Aug-11 22:46 269 2 gusting 6 30.0
2020-Aug-11 22:40 290 4 gusting 9 30.0
2020-Aug-11 22:35 246 3 gusting 9 30.0
2020-Aug-11 22:31 160 2 gusting 12 30.0
2020-Aug-11 22:25 193 3 gusting 12 30.0
2020-Aug-11 22:20 215 3 gusting 10 30.0
2020-Aug-11 22:15 210 5 gusting 10 30.0
2020-Aug-11 22:05 221 3 gusting 8 30.6
2020-Aug-11 21:55 165 4 gusting 10 30.6
2020-Aug-11 21:50 228 4 gusting 9 30.6
2020-Aug-11 21:46 193 3 gusting 10 31.1
2020-Aug-11 21:40 210 3 gusting 10 31.1
2020-Aug-11 21:35 214 2 gusting 12 31.7
2020-Aug-11 21:30 184 2 gusting 12 31.1
2020-Aug-11 21:25 218 4 gusting 10 31.1
2020-Aug-11 21:20 167 3 gusting 9 31.7
2020-Aug-11 21:15 164 2 gusting 11 31.1
2020-Aug-11 21:10 210 2 gusting 11 31.1
2020-Aug-11 21:05 229 3 gusting 8 31.1
2020-Aug-11 21:00 255 4 gusting 10 31.1
2020-Aug-11 20:55 164 4 gusting 11 31.7
2020-Aug-11 20:50 272 4 gusting 11 31.7
2020-Aug-11 20:40 223 1 gusting 8 31.7
2020-Aug-11 20:35 160 3 gusting 8 32.2
2020-Aug-11 20:25 134 3 gusting 8 32.8
2020-Aug-11 20:20 113 3 gusting 12 33.3
2020-Aug-11 20:10 200 4 gusting 9 33.3
2020-Aug-11 20:05 150 2 gusting 6 33.3
2020-Aug-11 19:55 177 3 gusting 9 32.8
2020-Aug-11 19:50 191 2 gusting 9 32.8
2020-Aug-11 19:45 136 3 gusting 9 32.8
2020-Aug-11 19:40 207 4 gusting 9 32.2
2020-Aug-11 19:35 218 3 gusting 6 32.2
2020-Aug-11 19:25 234 1 gusting 8 33.3
2020-Aug-11 19:20 122 5 gusting 8 32.8
2020-Aug-11 19:15 162 2 gusting 8 32.8
2020-Aug-11 19:10 155 3 gusting 8 32.8
2020-Aug-11 19:01 174 2 gusting 6 32.8
2020-Aug-11 18:55 129 2 gusting 12 32.8
2020-Aug-11 18:50 205 1 gusting 12 32.8
2020-Aug-11 18:46 213 2 gusting 5 33.3
2020-Aug-11 18:40 193 0 gusting 7 33.3
2020-Aug-11 18:35 141 2 gusting 7 33.3
2020-Aug-11 18:32 159 3 gusting 6 33.3
2020-Aug-11 18:25 236 3 gusting 6 33.3
2020-Aug-11 18:20 259 2 gusting 6 33.3
2020-Aug-11 18:17 252 3 gusting 6 33.3
2020-Aug-11 18:10 184 2 gusting 7 33.3
2020-Aug-11 18:01 224 2 gusting 9 32.8
2020-Aug-11 17:55 188 3 gusting 9 32.8
2020-Aug-11 17:50 158 2 gusting 6 32.8
2020-Aug-11 17:46 238 1 gusting 9 32.8
2020-Aug-11 17:40 184 4 gusting 9 32.2
2020-Aug-11 17:35 170 4 gusting 7 32.2
2020-Aug-11 17:31 248 3 gusting 7 32.2
2020-Aug-11 17:25 205 2 gusting 6 32.2
2020-Aug-11 17:20 234 2 gusting 6 32.2
2020-Aug-11 17:16 251 1 gusting 6 32.2
2020-Aug-11 17:10 141 1 gusting 7 32.2
2020-Aug-11 17:00 206 2 gusting 6 32.2
2020-Aug-11 16:55 250 1 gusting 6 32.2
2020-Aug-11 16:50 283 2 gusting 6 32.2
2020-Aug-11 16:46 264 1 gusting 4 32.2
2020-Aug-11 16:40 240 1 gusting 6 31.7
2020-Aug-11 16:35 226 1 gusting 6 31.7
2020-Aug-11 16:30 244 1 gusting 8 31.7
2020-Aug-11 16:25 253 3 gusting 8 31.7
2020-Aug-11 16:20 160 2 gusting 6 32.2
2020-Aug-11 16:15 218 2 gusting 7 31.7
2020-Aug-11 16:10 246 2 gusting 7 31.7
2020-Aug-11 16:05 253 2 gusting 6 31.7
2020-Aug-11 16:00 211 0 gusting 3 31.1
2020-Aug-11 15:55 226 1 gusting 5 31.1
2020-Aug-11 15:50 190 1 gusting 4 31.1
2020-Aug-11 15:45 238 0 gusting 4 31.1
2020-Aug-11 15:40 263 1 gusting 4 31.1
2020-Aug-11 15:35 309 0 gusting 6 31.1
2020-Aug-11 15:25 266 1 gusting 6 31.1
2020-Aug-11 15:20 195 2 gusting 6 31.1
2020-Aug-11 15:15 182 0 gusting 5 31.1
2020-Aug-11 15:10 190 2 gusting 5 30.6
2020-Aug-11 15:05 128 1 gusting 5 30.6
2020-Aug-11 15:00 261 1 gusting 4 30.6
2020-Aug-11 14:55 268 1 gusting 4 30.6
2020-Aug-11 14:50 207 1 gusting 5 30.0
2020-Aug-11 14:40 226 0 gusting 6 30.0
2020-Aug-11 14:36 205 0 gusting 6 30.0
2020-Aug-11 14:32 215 1 gusting 4 29.4
2020-Aug-11 14:25 233 1 gusting 4 29.4
2020-Aug-11 14:20 211 1 gusting 5 29.4
2020-Aug-11 14:16 224 2 gusting 5 29.4
2020-Aug-11 14:11 263 1 gusting 6 29.4
2020-Aug-11 14:05 249 2 gusting 6 28.9
2020-Aug-11 14:01 154 1 gusting 4 29.4
2020-Aug-11 13:55 182 1 gusting 4 28.9
2020-Aug-11 13:50 107 28.9
2020-Aug-11 13:46 211 0 gusting 3 28.9
2020-Aug-11 13:40 140 0 gusting 3 28.3
2020-Aug-11 13:35 165 2 gusting 3 28.3
2020-Aug-11 13:31 244 0 gusting 3 28.3
2020-Aug-11 13:25 258 0 gusting 3 28.3
2020-Aug-11 13:20 254 0 gusting 5 27.8
2020-Aug-11 13:15 262 1 gusting 5 27.8
2020-Aug-11 13:10 221 0 gusting 3 27.8
2020-Aug-11 13:05 180 1 gusting 4 27.8
2020-Aug-11 13:01 216 1 gusting 4 27.2
2020-Aug-11 12:55 226 0 gusting 2 27.2
2020-Aug-11 12:50 209 0 gusting 1 27.2
2020-Aug-11 12:46 178 26.7
2020-Aug-11 12:40 182 26.7
2020-Aug-11 12:35 213 0 gusting 2 26.1
2020-Aug-11 12:30 226 0 gusting 2 26.1
2020-Aug-11 12:25 191 0 gusting 2 26.1
2020-Aug-11 12:20 219 0 gusting 2 26.1
2020-Aug-11 12:15 210 26.1
2020-Aug-11 12:10 262 0 gusting 2 26.1
2020-Aug-11 12:05 155 25.6
2020-Aug-11 12:00 162 25.0
2020-Aug-11 11:55 107 25.0
2020-Aug-11 11:45 084 24.4
2020-Aug-11 11:40 146 24.4
2020-Aug-11 11:35 151 0 gusting 1 23.9
2020-Aug-11 11:30 195 23.9
2020-Aug-11 11:25 215 23.3
2020-Aug-11 11:20 220 22.8
2020-Aug-11 11:10 165 22.8
2020-Aug-11 11:05 221 22.2
2020-Aug-11 11:02 233 22.2
2020-Aug-11 10:55 233 22.2
2020-Aug-11 10:50 233 21.7
2020-Aug-11 10:46 233 21.7
2020-Aug-11 10:40 233 21.1
2020-Aug-11 10:37 233 20.6
2020-Aug-11 10:31 233 20.6
2020-Aug-11 10:25 233 20.0
2020-Aug-11 10:20 233 20.0
2020-Aug-11 10:17 233 20.0
2020-Aug-11 10:10 233 20.0
2020-Aug-11 10:05 220 20.0
2020-Aug-11 10:00 219 20.0
2020-Aug-11 09:55 234 20.0
2020-Aug-11 09:50 233 20.0
2020-Aug-11 09:46 212 20.0
2020-Aug-11 09:40 220 20.0
2020-Aug-11 09:35 205 20.0
2020-Aug-11 09:31 217 20.0
2020-Aug-11 09:25 217 20.0
2020-Aug-11 09:20 217 20.0
2020-Aug-11 09:15 216 20.0
2020-Aug-11 09:10 216 20.0
2020-Aug-11 09:05 216 20.0
2020-Aug-11 09:01 216 0 gusting 1 20.0
2020-Aug-11 08:56 229 20.0
2020-Aug-11 08:50 207 0 gusting 2 20.0
2020-Aug-11 08:46 259 20.0
2020-Aug-11 08:40 309 20.0
2020-Aug-11 08:35 309 20.0
2020-Aug-11 08:30 309 20.0
2020-Aug-11 08:25 330 19.4
2020-Aug-11 08:20 350 19.4
2020-Aug-11 08:15 072 19.4
2020-Aug-11 08:10 119 19.4
2020-Aug-11 08:05 119 19.4
2020-Aug-11 08:00 119 19.4
2020-Aug-11 07:55 119 19.4
2020-Aug-11 07:50 119 19.4
2020-Aug-11 07:46 152 19.4
2020-Aug-11 07:40 152 19.4
2020-Aug-11 07:35 152 19.4
2020-Aug-11 07:31 152 19.4
2020-Aug-11 07:25 152 20.0
2020-Aug-11 07:20 152 20.0
2020-Aug-11 07:15 152 20.0
2020-Aug-11 07:10 152 20.0
2020-Aug-11 07:05 152 20.0
2020-Aug-11 07:00 152 20.0
2020-Aug-11 06:55 234 20.0
2020-Aug-11 06:50 235 20.6
2020-Aug-11 06:40 235 20.6
2020-Aug-11 06:35 235 0 gusting 0 20.6
2020-Aug-11 06:25 235 20.6
2020-Aug-11 06:20 235 20.6
2020-Aug-11 06:10 235 20.6
2020-Aug-11 06:00 233 20.6
2020-Aug-11 05:55 190 20.6
2020-Aug-11 05:50 162 20.6
2020-Aug-11 05:45 162 20.6
2020-Aug-11 05:40 162 21.1
2020-Aug-11 05:35 162 21.1
2020-Aug-11 05:30 162 21.1
2020-Aug-11 05:21 162 21.1
2020-Aug-11 05:17 161 21.1
2020-Aug-11 05:10 162 21.1
2020-Aug-11 05:05 162 21.1
2020-Aug-11 05:01 167 21.1
2020-Aug-11 04:56 167 21.1
2020-Aug-11 04:50 167 21.1
2020-Aug-11 04:47 167 21.1
2020-Aug-11 04:40 165 21.1
2020-Aug-11 04:35 165 21.1
2020-Aug-11 04:32 165 21.1
2020-Aug-11 04:25 174 21.1
2020-Aug-11 04:20 172 21.1
2020-Aug-11 04:16 171 0 gusting 2 21.1
2020-Aug-11 04:10 190 21.1
2020-Aug-11 04:05 205 21.1
2020-Aug-11 04:02 185 0 gusting 1 21.1
2020-Aug-11 03:50 022 21.1
2020-Aug-11 03:45 022 21.1
2020-Aug-11 03:40 022 21.1
2020-Aug-11 03:35 022 21.1
2020-Aug-11 03:30 293 21.1
2020-Aug-11 03:25 285 21.1
2020-Aug-11 03:20 285 21.1
2020-Aug-11 03:17 285 21.1
2020-Aug-11 03:10 285 20.6
2020-Aug-11 03:05 285 20.6
2020-Aug-11 03:00 277 20.6
2020-Aug-11 02:55 277 20.6
2020-Aug-11 02:50 277 20.6
2020-Aug-11 02:45 277 20.6
2020-Aug-11 02:40 277 20.6
2020-Aug-11 02:35 278 20.6
2020-Aug-11 02:31 278 20.6
2020-Aug-11 02:25 278 20.6
2020-Aug-11 02:20 278 21.1
2020-Aug-11 02:15 277 21.1
2020-Aug-11 02:10 277 21.1
2020-Aug-11 02:05 287 21.1
2020-Aug-11 02:00 287 21.1
2020-Aug-11 01:55 287 21.1
2020-Aug-11 01:50 286 21.1
2020-Aug-11 01:46 305 21.1
2020-Aug-11 01:40 280 21.7
2020-Aug-11 01:35 304 0 gusting 3 21.7
2020-Aug-11 01:30 265 0 gusting 7 22.8
2020-Aug-11 01:25 281 2 gusting 7 23.9
2020-Aug-11 01:20 308 1 gusting 11 25.0
2020-Aug-11 01:16 297 3 gusting 11 25.6
2020-Aug-11 01:10 296 2 gusting 6 25.6
2020-Aug-11 01:05 262 1 gusting 3 25.6
2020-Aug-11 01:00 254 0 gusting 6 25.6
2020-Aug-11 00:55 272 0 gusting 6 25.6
2020-Aug-11 00:50 236 3 gusting 6 26.1
2020-Aug-11 00:45 240 2 gusting 7 26.1
2020-Aug-11 00:40 222 3 gusting 7 26.1
2020-Aug-11 00:35 274 2 gusting 5 26.7
2020-Aug-11 00:30 249 0 gusting 6 26.7
2020-Aug-11 00:25 252 1 gusting 6 26.7
2020-Aug-11 00:15 257 0 gusting 4 26.7
2020-Aug-11 00:10 265 27.2
2020-Aug-11 00:00 233 27.2
2020-Aug-10 23:50 241 27.2
2020-Aug-10 23:40 266 27.8
2020-Aug-10 23:35 257 0 gusting 1 27.8
2020-Aug-10 23:30 243 28.3
2020-Aug-10 23:25 218 0 gusting 3 28.3
2020-Aug-10 23:20 257 28.3
2020-Aug-10 23:15 245 0 gusting 2 28.3
2020-Aug-10 23:10 231 28.3
2020-Aug-10 23:05 222 28.9
2020-Aug-10 23:00 250 28.9
2020-Aug-10 22:55 249 28.9
2020-Aug-10 22:50 248 28.9
2020-Aug-10 22:36 257 29.4
2020-Aug-10 22:25 258 29.4
2020-Aug-10 22:21 258 30.0
2020-Aug-10 22:17 250 30.0
2020-Aug-10 22:10 245 30.6
2020-Aug-10 22:05 229 30.6
2020-Aug-10 22:02 258 30.6
2020-Aug-10 21:55 224 1 gusting 4 31.1
2020-Aug-10 21:51 249 31.1
2020-Aug-10 21:46 254 1 gusting 4 31.1
2020-Aug-10 21:40 202 0 gusting 4 31.7
2020-Aug-10 21:35 243 1 gusting 5 31.7
2020-Aug-10 21:32 262 2 gusting 4 32.2
2020-Aug-10 21:25 255 0 gusting 4 32.2
2020-Aug-10 21:20 191 1 gusting 5 32.2
2020-Aug-10 21:17 155 0 gusting 5 32.2
2020-Aug-10 21:10 226 2 gusting 5 32.2
2020-Aug-10 21:05 195 32.2
2020-Aug-10 21:01 167 1 gusting 4 32.8
2020-Aug-10 20:55 201 1 gusting 4 32.2
2020-Aug-10 20:50 259 0 gusting 4 32.2
2020-Aug-10 20:46 218 1 gusting 6 32.2
2020-Aug-10 20:40 181 2 gusting 6 32.2
2020-Aug-10 20:35 269 0 gusting 5 32.2
2020-Aug-10 20:30 223 0 gusting 3 32.8
2020-Aug-10 20:25 296 32.8
2020-Aug-10 20:20 180 2 gusting 6 32.8
2020-Aug-10 20:16 172 1 gusting 3 32.2
2020-Aug-10 20:10 166 0 gusting 5 31.7
2020-Aug-10 20:05 242 1 gusting 5 31.7
2020-Aug-10 20:01 256 0 gusting 5 32.2
2020-Aug-10 19:55 229 0 gusting 3 31.7
2020-Aug-10 19:50 230 1 gusting 3 32.2
2020-Aug-10 19:45 262 0 gusting 4 32.2
2020-Aug-10 19:40 233 0 gusting 4 32.8
2020-Aug-10 19:35 222 0 gusting 3 32.8
2020-Aug-10 19:31 242 1 gusting 6 32.2
2020-Aug-10 19:25 228 2 gusting 6 32.8
2020-Aug-10 19:20 205 0 gusting 4 32.8
2020-Aug-10 19:15 249 1 gusting 4 32.8
2020-Aug-10 19:10 275 32.8
2020-Aug-10 19:05 240 1 gusting 4 32.2
2020-Aug-10 19:00 270 0 gusting 2 32.2
2020-Aug-10 18:55 259 0 gusting 2 32.8
2020-Aug-10 18:50 277 32.8
2020-Aug-10 18:45 307 0 gusting 4 32.2
2020-Aug-10 18:40 262 1 gusting 4 32.8
2020-Aug-10 18:35 296 0 gusting 3 32.2
2020-Aug-10 18:30 281 0 gusting 3 32.8
2020-Aug-10 18:25 229 0 gusting 4 32.8
2020-Aug-10 18:20 285 1 gusting 4 32.8
2020-Aug-10 18:15 282 0 gusting 3 32.2
2020-Aug-10 18:10 278 1 gusting 4 32.2
2020-Aug-10 18:05 283 0 gusting 4 32.2